{"data":{"norad_id":68359,"epoch":"2026-09-17T21:56:54.259296Z","epoch_age_seconds":295554,"freshness":"STALE","line1":"1 68359U 26060K   26260.91451689  .00000098  00000+0  10610-3 0  9991","line2":"2 68359  54.9854  34.7109 0009391 268.8854  91.1048 14.26420774 26182","mean_motion":14.26420774,"eccentricity":0.0009391,"inclination_deg":54.9854,"raan_deg":34.7109,"arg_perigee_deg":268.8854,"mean_anomaly_deg":91.1048,"bstar":0.0001061,"rev_number":2618,"period_min":100.95197898457,"perigee_km":796.97525984176,"apogee_km":810.46422317366,"semimajor_km":7181.8567415077,"source":"CELESTRAK","updated_at":"2026-09-20T09:00:24.161017Z"}}